Time,TemperatureF,DewpointF,PressureIn,WindDirection,WindDirectionDegrees,WindSpeedMPH,WindSpeedGustMPH,Humidity,HourlyPrecipIn,Conditions,Clouds,dailyrainin,SoftwareType,DateUTC
2013-03-30 00:01:00,50.5,48.0,30.17,North,350,0.0,0.0,91,0.00,,---,0.00,VWS V14.00,2013-03-30 07:01:00,
2013-03-30 00:06:00,50.4,47.9,30.17,North,350,0.0,0.0,91,0.00,,---,0.00,VWS V14.00,2013-03-30 07:06:00,
2013-03-30 00:11:00,50.3,48.1,30.17,North,350,0.0,0.0,92,0.00,,---,0.00,VWS V14.00,2013-03-30 07:11:00,
2013-03-30 00:16:00,50.1,47.9,30.17,North,350,0.0,0.0,92,0.00,,---,0.00,VWS V14.00,2013-03-30 07:16:00,
2013-03-30 00:22:00,49.8,47.6,30.17,North,350,0.0,0.0,92,0.00,,---,0.00,VWS V14.00,2013-03-30 07:22:00,
2013-03-30 00:27:00,49.7,47.5,30.17,North,351,0.0,0.0,92,0.00,,---,0.00,VWS V14.00,2013-03-30 07:27:00,
2013-03-30 00:32:00,49.6,47.4,30.17,North,351,0.0,0.0,92,0.00,,---,0.00,VWS V14.00,2013-03-30 07:32:00,
2013-03-30 00:37:00,49.6,47.4,30.17,North,351,0.0,0.0,92,0.00,,---,0.00,VWS V14.00,2013-03-30 07:37:00,
2013-03-30 00:42:00,49.5,47.3,30.17,North,351,0.0,0.0,92,0.00,,---,0.00,VWS V14.00,2013-03-30 07:42:00,
2013-03-30 00:47:00,49.4,47.2,30.17,North,351,0.0,0.0,92,0.00,,---,0.00,VWS V14.00,2013-03-30 07:47:00,
2013-03-30 00:52:00,49.2,47.0,30.17,North,351,0.0,0.0,92,0.00,,---,0.00,VWS V14.00,2013-03-30 07:52:00,
2013-03-30 00:57:00,49.0,46.8,30.17,North,351,0.0,0.0,92,0.00,,---,0.00,VWS V14.00,2013-03-30 07:57:00,
2013-03-30 01:02:00,49.0,47.1,30.17,North,351,0.0,0.0,93,0.00,,---,0.00,VWS V14.00,2013-03-30 08:02:00,
2013-03-30 01:07:00,49.1,47.5,30.17,North,351,0.0,0.0,94,0.00,,---,0.00,VWS V14.00,2013-03-30 08:07:00,
2013-03-30 01:12:00,48.9,47.0,30.17,North,351,0.0,0.0,93,0.00,,---,0.00,VWS V14.00,2013-03-30 08:12:00,
2013-03-30 01:17:00,48.6,46.7,30.17,North,351,0.0,0.0,93,0.00,,---,0.00,VWS V14.00,2013-03-30 08:17:00,
2013-03-30 01:22:00,48.4,46.5,30.17,North,351,0.0,0.0,93,0.00,,---,0.00,VWS V14.00,2013-03-30 08:22:00,
2013-03-30 01:27:00,48.3,46.4,30.17,North,351,0.0,0.0,93,0.00,,---,0.00,VWS V14.00,2013-03-30 08:27:00,
2013-03-30 01:32:00,48.0,46.1,30.17,North,351,0.0,0.0,93,0.00,,---,0.00,VWS V14.00,2013-03-30 08:32:00,
2013-03-30 01:37:00,47.6,45.4,30.17,North,351,0.0,0.0,92,0.00,,---,0.00,VWS V14.00,2013-03-30 08:37:00,
2013-03-30 01:42:00,47.4,45.5,30.17,North,351,0.0,0.0,93,0.00,,---,0.00,VWS V14.00,2013-03-30 08:42:00,
2013-03-30 01:47:00,47.2,45.3,30.17,North,351,0.0,0.0,93,0.00,,---,0.00,VWS V14.00,2013-03-30 08:47:00,
2013-03-30 01:52:00,47.1,45.2,30.16,North,351,0.0,0.0,93,0.00,,---,0.00,VWS V14.00,2013-03-30 08:52:00,
2013-03-30 01:57:00,47.0,45.4,30.16,North,351,0.0,0.0,94,0.00,,---,0.00,VWS V14.00,2013-03-30 08:57:00,
2013-03-30 02:02:00,47.1,45.5,30.16,North,351,0.0,0.0,94,0.00,,---,0.00,VWS V14.00,2013-03-30 09:02:00,
2013-03-30 02:07:00,47.2,45.8,30.16,North,351,0.0,0.0,95,0.00,,---,0.00,VWS V14.00,2013-03-30 09:07:00,
2013-03-30 02:12:00,47.2,45.6,30.16,North,355,0.0,0.0,94,0.00,,---,0.00,VWS V14.00,2013-03-30 09:12:00,
2013-03-30 02:17:00,47.1,45.5,30.16,North,351,0.0,0.0,94,0.00,,---,0.00,VWS V14.00,2013-03-30 09:17:00,
2013-03-30 02:22:00,47.0,45.7,30.16,North,355,0.0,0.0,95,0.00,,---,0.00,VWS V14.00,2013-03-30 09:22:00,
2013-03-30 02:27:00,47.0,45.7,30.16,North,351,0.0,0.0,95,0.00,,---,0.00,VWS V14.00,2013-03-30 09:27:00,
2013-03-30 02:32:00,46.9,45.5,30.16,North,355,0.0,0.0,95,0.00,,---,0.00,VWS V14.00,2013-03-30 09:32:00,
2013-03-30 02:34:00,46.9,45.5,30.16,North,351,0.0,0.0,95,0.00,,---,0.00,VWS V14.00,2013-03-30 09:34:00,
2013-03-30 02:39:00,46.8,45.5,30.16,North,351,0.0,0.0,95,0.00,,---,0.00,VWS V14.00,2013-03-30 09:39:00,
2013-03-30 02:44:00,46.8,45.5,30.16,North,351,0.0,0.0,95,0.00,,---,0.00,VWS V14.00,2013-03-30 09:44:00,
2013-03-30 02:49:00,46.9,45.5,30.16,North,11,0.0,0.0,95,0.00,,---,0.00,VWS V14.00,2013-03-30 09:49:00,
2013-03-30 02:54:00,46.8,45.5,30.16,North,10,0.0,0.0,95,0.00,,---,0.00,VWS V14.00,2013-03-30 09:54:00,
2013-03-30 02:59:00,46.7,45.3,30.16,North,10,0.0,0.0,95,0.00,,---,0.00,VWS V14.00,2013-03-30 09:59:00,
2013-03-30 03:04:00,46.6,45.2,30.15,North,5,0.0,0.0,95,0.00,,---,0.00,VWS V14.00,2013-03-30 10:04:00,
2013-03-30 03:09:00,46.4,45.0,30.16,North,5,0.0,0.0,95,0.00,,---,0.00,VWS V14.00,2013-03-30 10:09:00,
2013-03-30 03:14:00,46.1,44.8,30.15,North,5,0.0,0.0,95,0.00,,---,0.00,VWS V14.00,2013-03-30 10:14:00,
2013-03-30 03:19:00,45.9,44.5,30.15,North,5,0.0,0.0,95,0.00,,---,0.00,VWS V14.00,2013-03-30 10:19:00,
2013-03-30 03:24:00,45.8,44.5,30.15,North,5,0.0,0.0,95,0.00,,---,0.00,VWS V14.00,2013-03-30 10:24:00,
2013-03-30 03:29:00,45.7,44.3,30.15,North,9,0.0,0.0,95,0.00,,---,0.00,VWS V14.00,2013-03-30 10:29:00,
2013-03-30 03:34:00,45.6,44.2,30.15,North,360,0.0,0.0,95,0.00,,---,0.00,VWS V14.00,2013-03-30 10:34:00,
2013-03-30 03:39:00,45.5,44.2,30.15,North,355,0.0,0.0,95,0.00,,---,0.00,VWS V14.00,2013-03-30 10:39:00,
2013-03-30 03:44:00,45.5,44.4,30.15,North,355,0.0,0.0,96,0.00,,---,0.00,VWS V14.00,2013-03-30 10:44:00,
2013-03-30 03:49:00,45.5,44.4,30.15,North,355,0.0,0.0,96,0.00,,---,0.00,VWS V14.00,2013-03-30 10:49:00,
2013-03-30 03:54:00,45.4,44.3,30.15,North,355,0.0,0.0,96,0.00,,---,0.00,VWS V14.00,2013-03-30 10:54:00,
2013-03-30 03:59:00,45.2,44.1,30.15,North,355,0.0,0.0,96,0.00,,---,0.00,VWS V14.00,2013-03-30 10:59:00,
2013-03-30 04:04:00,45.1,44.0,30.15,North,355,0.0,0.0,96,0.00,,---,0.00,VWS V14.00,2013-03-30 11:04:00,
2013-03-30 04:09:00,45.4,44.3,30.15,North,355,0.0,0.0,96,0.00,,---,0.00,VWS V14.00,2013-03-30 11:09:00,
2013-03-30 04:14:00,45.4,44.3,30.15,North,355,0.0,0.0,96,0.00,,---,0.00,VWS V14.00,2013-03-30 11:14:00,
2013-03-30 04:19:00,45.5,44.4,30.15,North,355,0.0,0.0,96,0.00,,---,0.00,VWS V14.00,2013-03-30 11:19:00,
2013-03-30 04:24:00,45.5,44.4,30.15,North,355,0.0,0.0,96,0.00,,---,0.00,VWS V14.00,2013-03-30 11:24:00,
2013-03-30 04:29:00,45.4,44.3,30.15,North,355,0.0,0.0,96,0.00,,---,0.00,VWS V14.00,2013-03-30 11:29:00,
2013-03-30 04:34:00,45.6,44.5,30.15,North,355,0.0,0.0,96,0.00,,---,0.00,VWS V14.00,2013-03-30 11:34:00,
2013-03-30 04:39:00,45.5,44.4,30.15,North,355,0.0,0.0,96,0.00,,---,0.00,VWS V14.00,2013-03-30 11:39:00,
2013-03-30 04:44:00,45.6,44.5,30.15,North,355,0.0,0.0,96,0.00,,---,0.00,VWS V14.00,2013-03-30 11:44:00,
2013-03-30 04:49:00,45.6,44.5,30.15,North,355,0.0,0.0,96,0.00,,---,0.00,VWS V14.00,2013-03-30 11:49:00,
2013-03-30 04:54:00,45.4,44.3,30.15,North,355,0.0,0.0,96,0.00,,---,0.00,VWS V14.00,2013-03-30 11:54:00,
2013-03-30 04:59:00,45.3,44.2,30.14,North,355,0.0,0.0,96,0.00,,---,0.00,VWS V14.00,2013-03-30 11:59:00,
2013-03-30 05:04:00,45.2,44.1,30.14,North,355,0.0,0.0,96,0.00,,---,0.00,VWS V14.00,2013-03-30 12:04:00,
2013-03-30 05:09:00,45.1,44.0,30.14,North,355,0.0,0.0,96,0.00,,---,0.00,VWS V14.00,2013-03-30 12:09:00,
2013-03-30 05:14:00,45.2,44.1,30.14,North,355,0.0,0.0,96,0.00,,---,0.00,VWS V14.00,2013-03-30 12:14:00,
2013-03-30 05:19:00,45.2,44.4,30.14,North,355,0.0,0.0,97,0.00,,---,0.00,VWS V14.00,2013-03-30 12:19:00,
2013-03-30 05:24:00,45.2,44.4,30.14,North,355,0.0,0.0,97,0.00,,---,0.00,VWS V14.00,2013-03-30 12:24:00,
2013-03-30 05:29:00,45.1,44.0,30.14,North,355,0.0,0.0,96,0.00,,---,0.00,VWS V14.00,2013-03-30 12:29:00,
2013-03-30 05:34:00,44.9,43.8,30.14,North,355,0.0,0.0,96,0.00,,---,0.00,VWS V14.00,2013-03-30 12:34:00,
2013-03-30 05:39:00,44.6,43.5,30.14,North,355,0.0,0.0,96,0.00,,---,0.00,VWS V14.00,2013-03-30 12:39:00,
2013-03-30 05:44:00,44.3,43.2,30.14,North,355,0.0,0.0,96,0.00,,---,0.00,VWS V14.00,2013-03-30 12:44:00,
2013-03-30 05:49:00,43.9,42.6,30.14,North,355,0.0,0.0,95,0.00,,---,0.00,VWS V14.00,2013-03-30 12:49:00,
2013-03-30 05:54:00,43.4,42.1,30.14,North,355,0.0,0.0,95,0.00,,---,0.00,VWS V14.00,2013-03-30 12:54:00,
2013-03-30 05:59:00,43.3,42.0,30.14,North,355,0.0,0.0,95,0.00,,---,0.00,VWS V14.00,2013-03-30 12:59:00,
2013-03-30 06:04:00,43.3,42.2,30.14,North,355,0.0,0.0,96,0.00,,---,0.00,VWS V14.00,2013-03-30 13:04:00,
2013-03-30 06:09:00,43.4,42.3,30.14,North,355,0.0,0.0,96,0.00,,---,0.00,VWS V14.00,2013-03-30 13:09:00,
2013-03-30 06:14:00,43.5,42.4,30.14,North,355,0.0,0.0,96,0.00,,---,0.00,VWS V14.00,2013-03-30 13:14:00,
2013-03-30 06:19:00,43.7,42.9,30.14,North,355,0.0,0.0,97,0.00,,---,0.00,VWS V14.00,2013-03-30 13:19:00,
2013-03-30 06:24:00,43.9,43.1,30.14,North,355,0.0,0.0,97,0.00,,---,0.00,VWS V14.00,2013-03-30 13:24:00,
2013-03-30 06:29:00,43.8,43.0,30.14,North,355,0.0,0.0,97,0.00,,---,0.00,VWS V14.00,2013-03-30 13:29:00,
2013-03-30 06:34:00,43.8,43.0,30.14,North,355,0.0,0.0,97,0.00,,---,0.00,VWS V14.00,2013-03-30 13:34:00,
2013-03-30 06:39:00,43.8,42.7,30.14,North,355,0.0,0.0,96,0.00,,---,0.00,VWS V14.00,2013-03-30 13:39:00,
2013-03-30 06:44:00,43.8,43.0,30.14,North,355,0.0,0.0,97,0.00,,---,0.00,VWS V14.00,2013-03-30 13:44:00,
2013-03-30 06:49:00,44.0,43.2,30.14,North,355,0.0,0.0,97,0.00,,---,0.00,VWS V14.00,2013-03-30 13:49:00,
2013-03-30 06:54:00,44.1,43.3,30.14,North,355,0.0,0.0,97,0.00,,---,0.00,VWS V14.00,2013-03-30 13:54:00,
2013-03-30 07:00:00,44.1,43.3,30.14,North,355,0.0,0.0,97,0.00,,---,0.00,VWS V14.00,2013-03-30 14:00:00,
2013-03-30 07:05:00,44.1,43.3,30.14,North,355,0.0,0.0,97,0.00,,---,0.00,VWS V14.00,2013-03-30 14:05:00,
2013-03-30 07:10:00,44.2,43.4,30.14,North,355,0.0,2.0,97,0.00,,---,0.00,VWS V14.00,2013-03-30 14:10:00,
2013-03-30 07:15:00,44.5,43.7,30.13,North,355,0.0,3.0,97,0.00,,---,0.00,VWS V14.00,2013-03-30 14:15:00,
2013-03-30 07:20:00,44.3,43.5,30.14,North,350,2.0,3.0,97,0.00,,---,0.00,VWS V14.00,2013-03-30 14:20:00,
2013-03-30 07:25:00,44.5,43.7,30.14,North,355,0.0,3.0,97,0.00,,---,0.00,VWS V14.00,2013-03-30 14:25:00,
2013-03-30 07:30:00,44.6,43.8,30.14,North,350,0.0,3.0,97,0.00,,---,0.00,VWS V14.00,2013-03-30 14:30:00,
2013-03-30 07:35:00,44.6,43.8,30.14,North,355,0.0,1.0,97,0.00,,---,0.00,VWS V14.00,2013-03-30 14:35:00,
2013-03-30 07:40:00,44.6,43.8,30.14,North,355,0.0,2.0,97,0.00,,---,0.00,VWS V14.00,2013-03-30 14:40:00,
2013-03-30 07:45:00,44.6,43.8,30.14,North,355,1.0,2.0,97,0.00,,---,0.00,VWS V14.00,2013-03-30 14:45:00,
2013-03-30 07:50:00,44.7,43.9,30.14,North,355,0.0,2.0,97,0.00,,---,0.00,VWS V14.00,2013-03-30 14:50:00,
2013-03-30 07:55:00,45.0,44.2,30.14,North,355,0.0,2.0,97,0.00,,---,0.00,VWS V14.00,2013-03-30 14:55:00,
2013-03-30 08:00:00,45.3,44.5,30.14,North,355,0.0,2.0,97,0.00,,---,0.00,VWS V14.00,2013-03-30 15:00:00,
2013-03-30 08:05:00,45.6,44.8,30.14,North,355,1.0,1.0,97,0.00,,---,0.00,VWS V14.00,2013-03-30 15:05:00,
2013-03-30 08:10:00,45.7,44.9,30.14,North,355,0.0,1.0,97,0.00,,---,0.00,VWS V14.00,2013-03-30 15:10:00,
2013-03-30 08:15:00,46.0,45.2,30.14,North,360,0.0,1.0,97,0.00,,---,0.00,VWS V14.00,2013-03-30 15:15:00,
2013-03-30 08:20:00,46.2,45.4,30.14,North,360,0.0,1.0,97,0.00,,---,0.00,VWS V14.00,2013-03-30 15:20:00,
2013-03-30 08:25:00,46.6,45.8,30.14,North,355,0.0,1.0,97,0.00,,---,0.00,VWS V14.00,2013-03-30 15:25:00,
2013-03-30 08:30:00,46.9,46.1,30.14,North,351,1.0,2.0,97,0.00,,---,0.00,VWS V14.00,2013-03-30 15:30:00,
2013-03-30 08:35:00,47.4,46.3,30.14,North,360,0.0,3.0,96,0.00,,---,0.00,VWS V14.00,2013-03-30 15:35:00,
2013-03-30 08:40:00,47.8,46.7,30.14,North,5,1.0,3.0,96,0.00,,---,0.00,VWS V14.00,2013-03-30 15:40:00,
2013-03-30 08:45:00,48.1,46.7,30.14,North,360,2.0,3.0,95,0.00,,---,0.00,VWS V14.00,2013-03-30 15:45:00,
2013-03-30 08:50:00,48.4,47.0,30.14,NNW,347,2.0,3.0,95,0.00,,---,0.00,VWS V14.00,2013-03-30 15:50:00,
2013-03-30 08:55:00,48.7,47.0,30.13,North,355,0.0,3.0,94,0.00,,---,0.00,VWS V14.00,2013-03-30 15:55:00,
2013-03-30 09:00:00,49.0,47.3,30.13,NNW,348,2.0,3.0,94,0.00,,---,0.00,VWS V14.00,2013-03-30 16:00:00,
2013-03-30 09:05:00,49.4,47.8,30.13,North,360,2.0,2.0,94,0.00,,---,0.00,VWS V14.00,2013-03-30 16:05:00,
2013-03-30 09:10:00,49.9,47.7,30.13,North,350,1.0,5.0,92,0.00,,---,0.00,VWS V14.00,2013-03-30 16:10:00,
2013-03-30 09:15:00,50.4,47.6,30.13,NNW,344,3.0,6.0,90,0.00,,---,0.00,VWS V14.00,2013-03-30 16:15:00,
2013-03-30 09:20:00,50.9,47.8,30.13,NNW,340,3.0,7.0,89,0.00,,---,0.00,VWS V14.00,2013-03-30 16:20:00,
2013-03-30 09:25:00,51.4,48.3,30.13,NNW,335,3.0,7.0,89,0.00,,---,0.00,VWS V14.00,2013-03-30 16:25:00,
2013-03-30 09:30:00,51.9,48.5,30.13,North,355,3.0,7.0,88,0.00,,---,0.00,VWS V14.00,2013-03-30 16:30:00,
2013-03-30 09:35:00,52.2,48.2,30.13,North,355,1.0,5.0,86,0.00,,---,0.00,VWS V14.00,2013-03-30 16:35:00,
2013-03-30 09:40:00,52.5,48.4,30.13,NNW,335,4.0,7.0,86,0.00,,---,0.00,VWS V14.00,2013-03-30 16:40:00,
2013-03-30 09:45:00,52.7,48.3,30.13,North,5,5.0,7.0,85,0.00,,---,0.00,VWS V14.00,2013-03-30 16:45:00,
2013-03-30 09:50:00,52.9,48.2,30.13,North,5,2.0,7.0,84,0.00,,---,0.00,VWS V14.00,2013-03-30 16:50:00,
2013-03-30 09:55:00,53.3,48.6,30.13,North,355,1.0,7.0,84,0.00,,---,0.00,VWS V14.00,2013-03-30 16:55:00,
2013-03-30 10:00:00,53.5,48.8,30.13,North,355,1.0,8.0,84,0.00,,---,0.00,VWS V14.00,2013-03-30 17:00:00,
2013-03-30 10:05:00,53.8,49.1,30.13,North,360,3.0,6.0,84,0.00,,---,0.00,VWS V14.00,2013-03-30 17:05:00,
2013-03-30 10:10:00,53.6,48.9,30.13,North,355,1.0,7.0,84,0.00,,---,0.00,VWS V14.00,2013-03-30 17:10:00,
2013-03-30 10:15:00,53.8,49.1,30.13,North,355,1.0,7.0,84,0.00,,---,0.00,VWS V14.00,2013-03-30 17:15:00,
2013-03-30 10:20:00,54.1,49.1,30.13,NNW,340,5.0,7.0,83,0.00,,---,0.00,VWS V14.00,2013-03-30 17:20:00,
2013-03-30 10:25:00,54.2,49.2,30.13,North,11,2.0,7.0,83,0.00,,---,0.00,VWS V14.00,2013-03-30 17:25:00,
2013-03-30 10:30:00,54.6,49.5,30.12,North,350,1.0,7.0,83,0.00,,---,0.00,VWS V14.00,2013-03-30 17:30:00,
2013-03-30 10:35:00,55.1,49.7,30.12,NNE,24,1.0,4.0,82,0.00,,---,0.00,VWS V14.00,2013-03-30 17:35:00,
2013-03-30 10:40:00,55.5,49.8,30.12,NNW,333,4.0,7.0,81,0.00,,---,0.00,VWS V14.00,2013-03-30 17:40:00,
2013-03-30 10:45:00,55.7,50.0,30.12,North,355,1.0,7.0,81,0.00,,---,0.00,VWS V14.00,2013-03-30 17:45:00,
2013-03-30 10:50:00,56.1,50.4,30.12,North,350,1.0,7.0,81,0.00,,---,0.00,VWS V14.00,2013-03-30 17:50:00,
2013-03-30 10:55:00,56.5,50.4,30.12,NNE,23,2.0,7.0,80,0.00,,---,0.00,VWS V14.00,2013-03-30 17:55:00,
2013-03-30 11:00:00,56.8,50.0,30.12,North,355,7.0,7.0,78,0.00,,---,0.00,VWS V14.00,2013-03-30 18:00:00,
2013-03-30 11:05:00,57.1,50.7,30.13,NNE,20,3.0,4.0,79,0.00,,---,0.00,VWS V14.00,2013-03-30 18:05:00,
2013-03-30 11:10:00,57.3,50.5,30.12,NNW,331,5.0,7.0,78,0.00,,---,0.00,VWS V14.00,2013-03-30 18:10:00,
2013-03-30 11:15:00,57.4,50.6,30.12,North,5,2.0,7.0,78,0.00,,---,0.00,VWS V14.00,2013-03-30 18:15:00,
2013-03-30 11:20:00,58.0,51.2,30.12,NNE,24,5.0,7.0,78,0.00,,---,0.00,VWS V14.00,2013-03-30 18:20:00,
2013-03-30 11:25:00,58.1,50.9,30.12,NNE,15,2.0,7.0,77,0.00,,---,0.00,VWS V14.00,2013-03-30 18:25:00,
2013-03-30 11:30:00,58.5,51.3,30.12,NNE,16,1.0,7.0,77,0.00,,---,0.00,VWS V14.00,2013-03-30 18:30:00,
2013-03-30 11:35:00,59.0,51.5,30.12,North,355,0.0,4.0,76,0.00,,---,0.00,VWS V14.00,2013-03-30 18:35:00,
2013-03-30 11:40:00,59.6,51.3,30.12,NNW,335,3.0,7.0,74,0.00,,---,0.00,VWS V14.00,2013-03-30 18:40:00,
2013-03-30 11:45:00,59.8,52.2,30.12,North,360,3.0,7.0,76,0.00,,---,0.00,VWS V14.00,2013-03-30 18:45:00,
2013-03-30 11:50:00,60.1,51.8,30.11,North,5,2.0,7.0,74,0.00,,---,0.00,VWS V14.00,2013-03-30 18:50:00,
2013-03-30 11:55:00,60.5,51.8,30.11,North,360,1.0,7.0,73,0.00,,---,0.00,VWS V14.00,2013-03-30 18:55:00,
2013-03-30 12:00:00,60.8,52.1,30.11,NNW,335,4.0,7.0,73,0.00,,---,0.00,VWS V14.00,2013-03-30 19:00:00,
2013-03-30 12:05:00,61.2,52.1,30.11,NNW,346,2.0,6.0,72,0.00,,---,0.00,VWS V14.00,2013-03-30 19:05:00,
2013-03-30 12:11:00,61.5,52.4,30.11,North,5,1.0,6.0,72,0.00,,---,0.00,VWS V14.00,2013-03-30 19:11:00,
2013-03-30 12:15:00,61.8,52.7,30.11,NNE,23,2.0,6.0,72,0.00,,---,0.00,VWS V14.00,2013-03-30 19:15:00,
2013-03-30 12:20:00,61.6,52.1,30.11,NNW,342,2.0,6.0,71,0.00,,---,0.00,VWS V14.00,2013-03-30 19:20:00,
2013-03-30 12:25:00,62.1,52.6,30.11,North,5,1.0,6.0,71,0.00,,---,0.00,VWS V14.00,2013-03-30 19:25:00,
2013-03-30 12:31:00,62.7,53.5,30.11,North,355,1.0,6.0,72,0.00,,---,0.00,VWS V14.00,2013-03-30 19:31:00,
2013-03-30 12:36:00,63.4,52.7,30.10,NNW,348,1.0,7.0,68,0.00,,---,0.00,VWS V14.00,2013-03-30 19:36:00,
2013-03-30 12:41:00,63.4,53.1,30.10,NNE,18,2.0,7.0,69,0.00,,---,0.00,VWS V14.00,2013-03-30 19:41:00,
2013-03-30 12:46:00,63.7,53.0,30.10,North,11,0.0,7.0,68,0.00,,---,0.00,VWS V14.00,2013-03-30 19:46:00,
2013-03-30 12:51:00,64.4,54.0,30.10,North,5,0.0,7.0,69,0.00,,---,0.00,VWS V14.00,2013-03-30 19:51:00,
2013-03-30 12:56:00,64.8,53.2,30.09,North,355,0.0,7.0,66,0.00,,---,0.00,VWS V14.00,2013-03-30 19:56:00,
2013-03-30 13:01:00,65.3,53.7,30.10,NNW,342,2.0,7.0,66,0.00,,---,0.00,VWS V14.00,2013-03-30 20:01:00,
2013-03-30 13:06:00,65.2,54.0,30.09,NNE,32,0.0,7.0,67,0.00,,---,0.00,VWS V14.00,2013-03-30 20:06:00,
2013-03-30 13:11:00,65.3,53.2,30.09,NW,319,3.0,7.0,65,0.00,,---,0.00,VWS V14.00,2013-03-30 20:11:00,
2013-03-30 13:16:00,65.2,53.2,30.09,North,350,3.0,9.0,65,0.00,,---,0.00,VWS V14.00,2013-03-30 20:16:00,
2013-03-30 13:21:00,65.2,52.3,30.09,NE,34,3.0,9.0,63,0.00,,---,0.00,VWS V14.00,2013-03-30 20:21:00,
2013-03-30 13:27:00,65.2,53.6,30.09,North,5,3.0,9.0,66,0.00,,---,0.00,VWS V14.00,2013-03-30 20:27:00,
2013-03-30 13:32:00,65.6,54.0,30.09,NW,313,4.0,9.0,66,0.00,,---,0.00,VWS V14.00,2013-03-30 20:32:00,
2013-03-30 13:37:00,66.1,53.2,30.08,NNE,28,2.0,7.0,63,0.00,,---,0.00,VWS V14.00,2013-03-30 20:37:00,
2013-03-30 13:42:00,66.3,53.3,30.08,NE,44,3.0,9.0,63,0.00,,---,0.00,VWS V14.00,2013-03-30 20:42:00,
2013-03-30 13:47:00,66.5,54.4,30.08,NNW,336,3.0,9.0,65,0.00,,---,0.00,VWS V14.00,2013-03-30 20:47:00,
2013-03-30 13:52:00,67.0,54.4,30.08,NNW,339,1.0,9.0,64,0.00,,---,0.00,VWS V14.00,2013-03-30 20:52:00,
2013-03-30 13:57:00,67.3,54.3,30.07,NNW,327,2.0,9.0,63,0.00,,---,0.00,VWS V14.00,2013-03-30 20:57:00,
2013-03-30 14:02:00,67.6,53.2,30.07,NW,324,1.0,9.0,60,0.00,,---,0.00,VWS V14.00,2013-03-30 21:02:00,
2013-03-30 14:07:00,67.8,54.8,30.07,North,350,1.0,6.0,63,0.00,,---,0.00,VWS V14.00,2013-03-30 21:07:00,
2013-03-30 14:12:00,68.3,55.2,30.07,North,11,3.0,6.0,63,0.00,,---,0.00,VWS V14.00,2013-03-30 21:12:00,
2013-03-30 14:17:00,68.7,54.3,30.06,North,355,2.0,6.0,60,0.00,,---,0.00,VWS V14.00,2013-03-30 21:17:00,
2013-03-30 14:22:00,68.8,54.8,30.06,NE,47,3.0,7.0,61,0.00,,---,0.00,VWS V14.00,2013-03-30 21:22:00,
2013-03-30 14:27:00,68.9,54.0,30.05,NNW,340,2.0,8.0,59,0.00,,---,0.00,VWS V14.00,2013-03-30 21:27:00,
2013-03-30 14:32:00,69.0,54.5,30.05,NNW,343,4.0,9.0,60,0.00,,---,0.00,VWS V14.00,2013-03-30 21:32:00,
2013-03-30 14:37:00,69.5,53.6,30.05,North,355,3.0,7.0,57,0.00,,---,0.00,VWS V14.00,2013-03-30 21:37:00,
2013-03-30 14:42:00,69.6,53.7,30.05,NW,315,4.0,8.0,57,0.00,,---,0.00,VWS V14.00,2013-03-30 21:42:00,
2013-03-30 14:47:00,69.8,53.4,30.05,North,11,3.0,8.0,56,0.00,,---,0.00,VWS V14.00,2013-03-30 21:47:00,
2013-03-30 14:52:00,69.8,53.4,30.04,North,360,6.0,10.0,56,0.00,,---,0.00,VWS V14.00,2013-03-30 21:52:00,
2013-03-30 14:57:00,69.8,53.9,30.04,NNW,331,1.0,10.0,57,0.00,,---,0.00,VWS V14.00,2013-03-30 21:57:00,
2013-03-30 15:02:00,70.2,52.3,30.03,NNW,331,3.0,3.0,53,0.00,,---,0.00,VWS V14.00,2013-03-30 22:02:00,
2013-03-30 15:07:00,70.3,52.4,30.03,NW,315,3.0,9.0,53,0.00,,---,0.00,VWS V14.00,2013-03-30 22:07:00,
2013-03-30 15:12:00,70.4,54.0,30.03,NNW,343,3.0,9.0,56,0.00,,---,0.00,VWS V14.00,2013-03-30 22:12:00,
2013-03-30 15:17:00,70.9,53.4,30.03,NW,326,3.0,9.0,54,0.00,,---,0.00,VWS V14.00,2013-03-30 22:17:00,
2013-03-30 15:22:00,71.3,53.8,30.02,NNW,345,3.0,9.0,54,0.00,,---,0.00,VWS V14.00,2013-03-30 22:22:00,
2013-03-30 15:27:00,71.9,53.9,30.02,NW,326,7.0,9.0,53,0.00,,---,0.00,VWS V14.00,2013-03-30 22:27:00,
2013-03-30 15:32:00,71.9,54.4,30.02,NNW,328,3.0,4.0,54,0.00,,---,0.00,VWS V14.00,2013-03-30 22:32:00,
2013-03-30 15:37:00,72.3,54.7,30.02,NNW,337,6.0,6.0,54,0.00,,---,0.00,VWS V14.00,2013-03-30 22:37:00,
2013-03-30 15:42:00,72.6,55.5,30.02,North,360,6.0,10.0,55,0.00,,---,0.00,VWS V14.00,2013-03-30 22:42:00,
2013-03-30 15:47:00,72.4,53.3,30.02,NNW,334,3.0,10.0,51,0.00,,---,0.00,VWS V14.00,2013-03-30 22:47:00,
2013-03-30 15:52:00,72.6,55.0,30.01,NW,318,0.0,10.0,54,0.00,,---,0.00,VWS V14.00,2013-03-30 22:52:00,
2013-03-30 15:58:00,73.4,54.2,30.01,North,355,7.0,10.0,51,0.00,,---,0.00,VWS V14.00,2013-03-30 22:58:00,
2013-03-30 16:03:00,73.3,54.1,30.01,NNW,332,8.0,8.0,51,0.00,,---,0.00,VWS V14.00,2013-03-30 23:03:00,
2013-03-30 16:08:00,73.0,53.3,30.01,NNE,15,3.0,9.0,50,0.00,,---,0.00,VWS V14.00,2013-03-30 23:08:00,
2013-03-30 16:13:00,72.8,54.2,30.00,NNW,345,2.0,9.0,52,0.00,,---,0.00,VWS V14.00,2013-03-30 23:13:00,
2013-03-30 16:18:00,73.0,54.4,30.00,NNW,347,3.0,9.0,52,0.00,,---,0.00,VWS V14.00,2013-03-30 23:18:00,
2013-03-30 16:23:00,72.8,53.1,30.00,WNW,301,2.0,9.0,50,0.00,,---,0.00,VWS V14.00,2013-03-30 23:23:00,
2013-03-30 16:28:00,72.8,53.6,30.00,WNW,282,2.0,9.0,51,0.00,,---,0.00,VWS V14.00,2013-03-30 23:28:00,
2013-03-30 16:33:00,72.8,54.2,30.00,WNW,296,3.0,4.0,52,0.00,,---,0.00,VWS V14.00,2013-03-30 23:33:00,
2013-03-30 16:38:00,73.0,53.8,30.00,WNW,291,4.0,7.0,51,0.00,,---,0.00,VWS V14.00,2013-03-30 23:38:00,
2013-03-30 16:43:00,73.0,54.4,30.00,North,5,3.0,8.0,52,0.00,,---,0.00,VWS V14.00,2013-03-30 23:43:00,
2013-03-30 16:48:00,72.9,53.7,29.99,North,5,3.0,8.0,51,0.00,,---,0.00,VWS V14.00,2013-03-30 23:48:00,
2013-03-30 16:53:00,73.0,54.4,29.99,NNW,341,1.0,8.0,52,0.00,,---,0.00,VWS V14.00,2013-03-30 23:53:00,
2013-03-30 16:58:00,73.1,55.0,29.99,NNW,342,0.0,8.0,53,0.00,,---,0.00,VWS V14.00,2013-03-30 23:58:00,
2013-03-30 17:03:00,73.2,54.0,29.99,NNW,343,7.0,7.0,51,0.00,,---,0.00,VWS V14.00,2013-03-31 00:03:00,
2013-03-30 17:08:00,73.1,54.5,29.98,WNW,303,3.0,9.0,52,0.00,,---,0.00,VWS V14.00,2013-03-31 00:08:00,
2013-03-30 17:13:00,73.0,53.8,29.98,NNW,335,4.0,9.0,51,0.00,,---,0.00,VWS V14.00,2013-03-31 00:13:00,
2013-03-30 17:18:00,72.9,54.3,29.98,North,355,1.0,10.0,52,0.00,,---,0.00,VWS V14.00,2013-03-31 00:18:00,
2013-03-30 17:23:00,73.0,55.4,29.98,NW,317,0.0,10.0,54,0.00,,---,0.00,VWS V14.00,2013-03-31 00:23:00,
2013-03-30 17:28:00,73.1,54.5,29.98,NNW,341,0.0,11.0,52,0.00,,---,0.00,VWS V14.00,2013-03-31 00:28:00,
2013-03-30 17:33:00,73.1,53.9,29.97,NNW,346,5.0,6.0,51,0.00,,---,0.00,VWS V14.00,2013-03-31 00:33:00,
2013-03-30 17:38:00,72.9,55.3,29.97,North,355,3.0,6.0,54,0.00,,---,0.00,VWS V14.00,2013-03-31 00:38:00,
2013-03-30 17:43:00,72.5,53.4,29.97,NW,319,4.0,6.0,51,0.00,,---,0.00,VWS V14.00,2013-03-31 00:43:00,
2013-03-30 17:48:00,72.5,53.4,29.97,NNW,344,5.0,10.0,51,0.00,,---,0.00,VWS V14.00,2013-03-31 00:48:00,
2013-03-30 17:53:00,72.4,53.3,29.97,NNW,340,3.0,10.0,51,0.00,,---,0.00,VWS V14.00,2013-03-31 00:53:00,
2013-03-30 17:58:00,72.4,53.8,29.97,NW,325,3.0,10.0,52,0.00,,---,0.00,VWS V14.00,2013-03-31 00:58:00,
2013-03-30 18:03:00,72.3,54.7,29.96,NNW,334,1.0,2.0,54,0.00,,---,0.00,VWS V14.00,2013-03-31 01:03:00,
2013-03-30 18:08:00,72.2,53.6,29.96,NW,321,1.0,6.0,52,0.00,,---,0.00,VWS V14.00,2013-03-31 01:08:00,
2013-03-30 18:13:00,72.2,53.6,29.96,North,351,1.0,7.0,52,0.00,,---,0.00,VWS V14.00,2013-03-31 01:13:00,
2013-03-30 18:18:00,72.1,54.0,29.96,North,349,0.0,7.0,53,0.00,,---,0.00,VWS V14.00,2013-03-31 01:18:00,
2013-03-30 18:23:00,71.9,53.3,29.96,NNW,345,3.0,7.0,52,0.00,,---,0.00,VWS V14.00,2013-03-31 01:23:00,
2013-03-30 18:28:00,71.9,53.3,29.96,NNW,329,1.0,7.0,52,0.00,,---,0.00,VWS V14.00,2013-03-31 01:28:00,
2013-03-30 18:33:00,71.7,53.7,29.96,NNW,329,0.0,2.0,53,0.00,,---,0.00,VWS V14.00,2013-03-31 01:33:00,
2013-03-30 18:38:00,71.5,53.5,29.96,NW,309,1.0,2.0,53,0.00,,---,0.00,VWS V14.00,2013-03-31 01:38:00,
2013-03-30 18:43:00,71.3,53.8,29.95,NW,323,1.0,3.0,54,0.00,,---,0.00,VWS V14.00,2013-03-31 01:43:00,
2013-03-30 18:49:00,71.0,54.0,29.96,NNW,335,0.0,3.0,55,0.00,,---,0.00,VWS V14.00,2013-03-31 01:49:00,
2013-03-30 18:54:00,70.7,53.8,29.96,NNW,335,0.0,3.0,55,0.00,,---,0.00,VWS V14.00,2013-03-31 01:54:00,
2013-03-30 18:59:00,70.3,54.4,29.95,NNW,330,1.0,3.0,57,0.00,,---,0.00,VWS V14.00,2013-03-31 01:59:00,
2013-03-30 19:04:00,70.0,53.6,29.95,NNW,332,0.0,1.0,56,0.00,,---,0.00,VWS V14.00,2013-03-31 02:04:00,
2013-03-30 19:09:00,69.7,53.8,29.95,NW,322,1.0,2.0,57,0.00,,---,0.00,VWS V14.00,2013-03-31 02:09:00,
2013-03-30 19:14:00,69.3,53.0,29.95,NNW,340,1.0,2.0,56,0.00,,---,0.00,VWS V14.00,2013-03-31 02:14:00,
2013-03-30 19:19:00,69.0,53.2,29.95,NNW,342,1.0,2.0,57,0.00,,---,0.00,VWS V14.00,2013-03-31 02:19:00,
2013-03-30 19:24:00,68.7,53.3,29.95,NNW,340,0.0,2.0,58,0.00,,---,0.00,VWS V14.00,2013-03-31 02:24:00,
2013-03-30 19:29:00,68.3,53.0,29.94,NNW,340,1.0,2.0,58,0.00,,---,0.00,VWS V14.00,2013-03-31 02:29:00,
2013-03-30 19:34:00,68.0,52.7,29.94,NNW,337,1.0,2.0,58,0.00,,---,0.00,VWS V14.00,2013-03-31 02:34:00,
2013-03-30 19:39:00,67.7,52.9,29.94,NNW,337,1.0,2.0,59,0.00,,---,0.00,VWS V14.00,2013-03-31 02:39:00,
2013-03-30 19:44:00,67.4,52.6,29.94,NNW,337,1.0,2.0,59,0.00,,---,0.00,VWS V14.00,2013-03-31 02:44:00,
2013-03-30 19:49:00,67.1,52.8,29.94,NNW,336,1.0,2.0,60,0.00,,---,0.00,VWS V14.00,2013-03-31 02:49:00,
2013-03-30 19:54:00,66.7,53.7,29.94,NNW,336,0.0,2.0,63,0.00,,---,0.00,VWS V14.00,2013-03-31 02:54:00,
2013-03-30 19:59:00,66.2,54.1,29.94,NNW,336,0.0,2.0,65,0.00,,---,0.00,VWS V14.00,2013-03-31 02:59:00,
2013-03-30 20:04:00,65.5,53.4,29.94,NNW,337,0.0,0.0,65,0.00,,---,0.00,VWS V14.00,2013-03-31 03:04:00,
2013-03-30 20:09:00,64.9,53.7,29.94,NNW,336,0.0,1.0,67,0.00,,---,0.00,VWS V14.00,2013-03-31 03:09:00,
2013-03-30 20:14:00,64.4,53.6,29.94,NNW,336,0.0,1.0,68,0.00,,---,0.00,VWS V14.00,2013-03-31 03:14:00,
2013-03-30 20:19:00,63.9,53.1,29.94,NNW,336,0.0,1.0,68,0.00,,---,0.00,VWS V14.00,2013-03-31 03:19:00,
2013-03-30 20:24:00,63.4,53.1,29.94,NNW,336,0.0,1.0,69,0.00,,---,0.00,VWS V14.00,2013-03-31 03:24:00,
2013-03-30 20:29:00,62.9,53.4,29.94,NNW,336,0.0,1.0,71,0.00,,---,0.00,VWS V14.00,2013-03-31 03:29:00,
2013-03-30 20:34:00,62.5,53.0,29.94,NNW,336,0.0,0.0,71,0.00,,---,0.00,VWS V14.00,2013-03-31 03:34:00,
2013-03-30 20:39:00,62.1,53.0,29.94,NNW,336,0.0,0.0,72,0.00,,---,0.00,VWS V14.00,2013-03-31 03:39:00,
2013-03-30 20:44:00,61.8,53.4,29.94,NNW,336,0.0,0.0,74,0.00,,---,0.00,VWS V14.00,2013-03-31 03:44:00,
2013-03-30 20:49:00,61.6,53.2,29.94,NNW,336,0.0,0.0,74,0.00,,---,0.00,VWS V14.00,2013-03-31 03:49:00,
2013-03-30 20:54:00,61.3,53.3,29.94,NNW,336,0.0,0.0,75,0.00,,---,0.00,VWS V14.00,2013-03-31 03:54:00,
2013-03-30 20:59:00,61.0,53.8,29.94,NNW,336,0.0,0.0,77,0.00,,---,0.00,VWS V14.00,2013-03-31 03:59:00,
2013-03-30 21:00:00,61.0,53.8,29.94,NNW,336,0.0,0.0,77,0.00,,---,0.00,VWS V14.00,2013-03-31 04:00:00,
2013-03-30 21:05:00,60.8,53.9,29.94,NNW,336,0.0,0.0,78,0.00,,---,0.00,VWS V14.00,2013-03-31 04:05:00,
2013-03-30 21:10:00,60.5,53.6,29.94,NNW,336,0.0,0.0,78,0.00,,---,0.00,VWS V14.00,2013-03-31 04:10:00,
2013-03-30 21:15:00,60.3,53.8,29.94,NNW,336,0.0,0.0,79,0.00,,---,0.00,VWS V14.00,2013-03-31 04:15:00,
2013-03-30 21:20:00,60.1,53.6,29.95,NNW,336,0.0,0.0,79,0.00,,---,0.00,VWS V14.00,2013-03-31 04:20:00,
2013-03-30 21:25:00,59.9,54.7,29.95,NNW,336,0.0,0.0,83,0.00,,---,0.00,VWS V14.00,2013-03-31 04:25:00,
2013-03-30 21:30:00,59.8,55.0,29.95,NNW,336,0.0,0.0,84,0.00,,---,0.00,VWS V14.00,2013-03-31 04:30:00,
2013-03-30 21:35:00,59.5,53.0,29.94,NNW,336,0.0,0.0,79,0.00,,---,0.00,VWS V14.00,2013-03-31 04:35:00,
2013-03-30 21:40:00,59.3,51.8,29.94,NNW,336,0.0,0.0,76,0.00,,---,0.00,VWS V14.00,2013-03-31 04:40:00,
2013-03-30 21:45:00,59.4,53.2,29.94,NNW,336,0.0,0.0,80,0.00,,---,0.00,VWS V14.00,2013-03-31 04:45:00,
2013-03-30 21:50:00,59.3,52.1,29.94,NNW,336,0.0,0.0,77,0.00,,---,0.00,VWS V14.00,2013-03-31 04:50:00,
2013-03-30 21:55:00,59.2,51.7,29.94,NNW,336,0.0,0.0,76,0.00,,---,0.00,VWS V14.00,2013-03-31 04:55:00,
2013-03-30 22:00:00,59.1,51.9,29.95,NNW,336,0.0,0.0,77,0.00,,---,0.00,VWS V14.00,2013-03-31 05:00:00,
2013-03-30 22:05:00,58.9,51.0,29.95,NNW,336,0.0,0.0,75,0.00,,---,0.00,VWS V14.00,2013-03-31 05:05:00,
2013-03-30 22:10:00,58.8,51.3,29.95,NNW,336,0.0,0.0,76,0.00,,---,0.00,VWS V14.00,2013-03-31 05:10:00,
2013-03-30 22:15:00,58.7,51.5,29.95,NNW,336,0.0,0.0,77,0.00,,---,0.00,VWS V14.00,2013-03-31 05:15:00,
2013-03-30 22:20:00,58.5,51.0,29.94,NNW,336,0.0,0.0,76,0.00,,---,0.00,VWS V14.00,2013-03-31 05:20:00,
2013-03-30 22:25:00,58.4,50.9,29.94,NNW,336,0.0,0.0,76,0.00,,---,0.00,VWS V14.00,2013-03-31 05:25:00,
2013-03-30 22:30:00,58.3,51.1,29.95,NNW,336,0.0,0.0,77,0.00,,---,0.00,VWS V14.00,2013-03-31 05:30:00,
2013-03-30 22:35:00,58.1,50.9,29.95,NNW,336,0.0,0.0,77,0.00,,---,0.00,VWS V14.00,2013-03-31 05:35:00,
2013-03-30 22:40:00,58.0,52.5,29.95,NNW,336,0.0,0.0,82,0.00,,---,0.00,VWS V14.00,2013-03-31 05:40:00,
2013-03-30 22:45:00,57.8,51.7,29.95,NNW,336,0.0,0.0,80,0.00,,---,0.00,VWS V14.00,2013-03-31 05:45:00,
2013-03-30 22:50:00,57.7,53.2,29.95,NNW,336,0.0,0.0,85,0.00,,---,0.00,VWS V14.00,2013-03-31 05:50:00,
2013-03-30 22:55:00,57.2,52.1,29.95,NNW,336,0.0,0.0,83,0.00,,---,0.00,VWS V14.00,2013-03-31 05:55:00,
2013-03-30 23:00:00,56.7,52.2,29.95,NNW,336,0.0,0.0,85,0.00,,---,0.00,VWS V14.00,2013-03-31 06:00:00,
2013-03-30 23:06:00,56.5,52.4,29.95,NNW,336,0.0,0.0,86,0.00,,---,0.00,VWS V14.00,2013-03-31 06:06:00,
2013-03-30 23:11:00,56.2,51.4,29.95,NNW,336,0.0,0.0,84,0.00,,---,0.00,VWS V14.00,2013-03-31 06:11:00,
2013-03-30 23:16:00,56.1,52.3,29.95,NNW,336,0.0,0.0,87,0.00,,---,0.00,VWS V14.00,2013-03-31 06:16:00,
2013-03-30 23:21:00,56.1,52.9,29.95,NNW,336,0.0,0.0,89,0.00,,---,0.00,VWS V14.00,2013-03-31 06:21:00,
2013-03-30 23:26:00,55.8,52.0,29.95,NNW,336,0.0,0.0,87,0.00,,---,0.00,VWS V14.00,2013-03-31 06:26:00,
2013-03-30 23:31:00,55.6,51.8,29.95,NNW,336,0.0,0.0,87,0.00,,---,0.00,VWS V14.00,2013-03-31 06:31:00,
2013-03-30 23:36:00,55.5,51.4,29.95,NNW,336,0.0,0.0,86,0.00,,---,0.00,VWS V14.00,2013-03-31 06:36:00,
2013-03-30 23:41:00,55.4,51.0,29.95,NNW,336,0.0,0.0,85,0.00,,---,0.00,VWS V14.00,2013-03-31 06:41:00,
2013-03-30 23:46:00,55.3,51.5,29.95,NNW,336,0.0,0.0,87,0.00,,---,0.00,VWS V14.00,2013-03-31 06:46:00,
2013-03-30 23:51:00,55.2,51.1,29.95,NNW,336,0.0,0.0,86,0.00,,---,0.00,VWS V14.00,2013-03-31 06:51:00,
2013-03-30 23:56:00,55.0,51.5,29.95,NNW,336,0.0,0.0,88,0.00,,---,0.00,VWS V14.00,2013-03-31 06:56:00,